Time,TemperatureF,DewpointF,PressureIn,WindDirection,WindDirectionDegrees,WindSpeedMPH,WindSpeedGustMPH,Humidity,HourlyPrecipIn,Conditions,Clouds,dailyrainin,SoftwareType,DateUTC
2013-10-07 00:01:00,76.1,76.1,30.01,SSE,160,5.0,11.0,100,0.00,,---,0.00,VWS V14.01,2013-10-07 04:01:00,
2013-10-07 00:02:00,76.1,76.1,30.01,SSE,154,5.0,7.0,100,0.00,,---,0.00,VWS V14.01,2013-10-07 04:02:00,
2013-10-07 00:07:00,76.2,76.2,30.01,SSE,162,8.0,9.0,100,0.00,,---,0.00,VWS V14.01,2013-10-07 04:07:00,
2013-10-07 00:12:00,76.2,76.2,30.01,SSE,167,4.0,12.0,100,0.00,,---,0.00,VWS V14.01,2013-10-07 04:12:00,
2013-10-07 00:17:00,76.3,76.3,30.01,SSE,155,6.0,12.0,100,0.00,,---,0.00,VWS V14.01,2013-10-07 04:17:00,
2013-10-07 00:22:00,76.3,76.3,30.01,SSE,160,7.0,12.0,100,0.00,,---,0.00,VWS V14.01,2013-10-07 04:22:00,
2013-10-07 00:27:00,76.3,76.3,30.01,SE,146,5.0,12.0,100,0.00,,---,0.00,VWS V14.01,2013-10-07 04:27:00,
2013-10-07 00:32:00,76.4,76.4,30.01,South,169,6.0,9.0,100,0.00,,---,0.00,VWS V14.01,2013-10-07 04:32:00,
2013-10-07 00:37:00,76.4,76.4,30.01,South,170,5.0,11.0,100,0.00,,---,0.00,VWS V14.01,2013-10-07 04:37:00,
2013-10-07 00:42:00,76.3,76.3,30.00,SSE,156,9.0,12.0,100,0.00,,---,0.00,VWS V14.01,2013-10-07 04:42:00,
2013-10-07 00:47:00,76.3,76.3,30.00,SSE,152,8.0,12.0,100,0.00,,---,0.00,VWS V14.01,2013-10-07 04:47:00,
2013-10-07 00:52:00,76.3,76.3,30.00,SSE,159,6.0,12.0,100,0.00,,---,0.00,VWS V14.01,2013-10-07 04:52:00,
2013-10-07 00:57:00,76.3,76.3,30.00,SSE,157,7.0,12.0,100,0.00,,---,0.00,VWS V14.01,2013-10-07 04:57:00,
2013-10-07 01:02:00,76.3,76.3,30.00,SE,139,7.0,9.0,100,0.00,,---,0.00,VWS V14.01,2013-10-07 05:02:00,
2013-10-07 01:07:00,76.3,76.3,30.00,SSE,154,7.0,13.0,100,0.00,,---,0.00,VWS V14.01,2013-10-07 05:07:00,
2013-10-07 01:12:00,76.3,76.3,30.00,SSE,156,10.0,13.0,100,0.00,,---,0.00,VWS V14.01,2013-10-07 05:12:00,
2013-10-07 01:17:00,76.3,76.3,30.00,SE,146,6.0,17.0,100,0.00,,---,0.00,VWS V14.01,2013-10-07 05:17:00,
2013-10-07 01:22:00,76.4,76.4,30.00,SSE,162,7.0,17.0,100,0.00,,---,0.00,VWS V14.01,2013-10-07 05:22:00,
2013-10-07 01:27:00,76.4,76.4,30.00,SSE,154,6.0,17.0,100,0.00,,---,0.00,VWS V14.01,2013-10-07 05:27:00,
2013-10-07 01:32:00,76.3,76.3,30.00,SSE,158,9.0,9.0,100,0.00,,---,0.00,VWS V14.01,2013-10-07 05:32:00,
2013-10-07 01:37:00,76.3,76.3,30.00,South,170,3.0,12.0,100,0.00,,---,0.00,VWS V14.01,2013-10-07 05:37:00,
2013-10-07 01:42:00,76.2,76.2,30.00,SSE,158,12.0,13.0,100,0.00,,---,0.00,VWS V14.01,2013-10-07 05:42:00,
2013-10-07 01:47:00,76.2,76.2,30.00,South,178,5.0,13.0,100,0.00,,---,0.00,VWS V14.01,2013-10-07 05:47:00,
2013-10-07 01:52:00,76.1,76.1,30.00,SSE,168,9.0,13.0,100,0.00,,---,0.00,VWS V14.01,2013-10-07 05:52:00,
2013-10-07 01:57:00,76.1,76.1,30.00,South,183,3.0,13.0,100,0.00,,---,0.00,VWS V14.01,2013-10-07 05:57:00,
2013-10-07 02:02:00,76.0,76.0,30.00,SSE,166,3.0,11.0,100,0.00,,---,0.00,VWS V14.01,2013-10-07 06:02:00,
2013-10-07 02:07:00,76.0,76.0,30.00,SSE,165,6.0,12.0,100,0.00,,---,0.00,VWS V14.01,2013-10-07 06:07:00,
2013-10-07 02:12:00,76.0,76.0,30.00,SSE,161,6.0,12.0,100,0.00,,---,0.00,VWS V14.01,2013-10-07 06:12:00,
2013-10-07 02:17:00,76.0,76.0,30.00,South,178,8.0,12.0,100,0.00,,---,0.00,VWS V14.01,2013-10-07 06:17:00,
2013-10-07 02:22:00,76.0,76.0,30.00,South,176,6.0,12.0,100,0.00,,---,0.00,VWS V14.01,2013-10-07 06:22:00,
2013-10-07 02:27:00,75.9,75.9,29.99,South,179,4.0,12.0,100,0.00,,---,0.00,VWS V14.01,2013-10-07 06:27:00,
2013-10-07 02:32:00,75.8,75.8,29.99,South,184,5.0,8.0,100,0.00,,---,0.00,VWS V14.01,2013-10-07 06:32:00,
2013-10-07 02:37:00,75.8,75.8,29.99,South,179,6.0,8.0,100,0.00,,---,0.00,VWS V14.01,2013-10-07 06:37:00,
2013-10-07 02:42:00,75.8,75.8,29.99,South,187,4.0,9.0,100,0.00,,---,0.00,VWS V14.01,2013-10-07 06:42:00,
2013-10-07 02:47:00,75.8,75.8,29.99,South,183,6.0,10.0,100,0.00,,---,0.00,VWS V14.01,2013-10-07 06:47:00,
2013-10-07 02:52:00,75.7,75.7,29.99,South,174,8.0,12.0,100,0.00,,---,0.00,VWS V14.01,2013-10-07 06:52:00,
2013-10-07 02:57:00,75.7,75.7,29.98,SSE,160,9.0,15.0,100,0.00,,---,0.00,VWS V14.01,2013-10-07 06:57:00,
2013-10-07 03:02:00,75.6,75.6,29.98,SSE,157,7.0,14.0,100,0.00,,---,0.00,VWS V14.01,2013-10-07 07:02:00,
2013-10-07 03:07:00,75.6,75.6,29.98,SSE,164,10.0,14.0,100,0.00,,---,0.00,VWS V14.01,2013-10-07 07:07:00,
2013-10-07 03:12:00,75.6,75.6,29.97,SSE,154,5.0,14.0,100,0.00,,---,0.00,VWS V14.01,2013-10-07 07:12:00,
2013-10-07 03:17:00,75.6,75.6,29.97,SSE,166,8.0,14.0,100,0.00,,---,0.00,VWS V14.01,2013-10-07 07:17:00,
2013-10-07 03:22:00,75.6,75.6,29.98,SSE,155,7.0,14.0,100,0.00,,---,0.00,VWS V14.01,2013-10-07 07:22:00,
2013-10-07 03:27:00,75.6,75.6,29.98,SSE,164,3.0,14.0,100,0.00,,---,0.00,VWS V14.01,2013-10-07 07:27:00,
2013-10-07 03:32:00,75.6,75.6,29.97,SSW,193,3.0,4.0,100,0.00,,---,0.00,VWS V14.01,2013-10-07 07:32:00,
2013-10-07 03:37:00,75.6,75.6,29.97,South,183,2.0,8.0,100,0.00,,---,0.00,VWS V14.01,2013-10-07 07:37:00,
2013-10-07 03:42:00,75.6,75.6,29.97,South,173,3.0,10.0,100,0.00,,---,0.00,VWS V14.01,2013-10-07 07:42:00,
2013-10-07 03:47:00,75.6,75.6,29.97,SSE,168,9.0,10.0,100,0.00,,---,0.00,VWS V14.01,2013-10-07 07:47:00,
2013-10-07 03:52:00,75.6,75.6,29.97,SSE,164,7.0,10.0,100,0.00,,---,0.00,VWS V14.01,2013-10-07 07:52:00,
2013-10-07 03:57:00,75.6,75.6,29.97,South,176,3.0,10.0,100,0.00,,---,0.00,VWS V14.01,2013-10-07 07:57:00,
2013-10-07 04:02:00,75.6,75.6,29.97,South,171,7.0,7.0,100,0.00,,---,0.00,VWS V14.01,2013-10-07 08:02:00,
2013-10-07 04:07:00,75.5,75.5,29.97,South,173,3.0,9.0,100,0.00,,---,0.00,VWS V14.01,2013-10-07 08:07:00,
2013-10-07 04:12:00,75.5,75.5,29.96,South,169,8.0,9.0,100,0.00,,---,0.00,VWS V14.01,2013-10-07 08:12:00,
2013-10-07 04:17:00,75.5,75.5,29.97,South,176,3.0,10.0,100,0.00,,---,0.00,VWS V14.01,2013-10-07 08:17:00,
2013-10-07 04:22:00,75.4,75.4,29.97,SSE,159,9.0,11.0,100,0.00,,---,0.00,VWS V14.01,2013-10-07 08:22:00,
2013-10-07 04:27:00,75.4,75.4,29.97,South,179,4.0,11.0,100,0.00,,---,0.00,VWS V14.01,2013-10-07 08:27:00,
2013-10-07 04:32:00,75.4,75.4,29.97,SSE,168,3.0,7.0,100,0.00,,---,0.00,VWS V14.01,2013-10-07 08:32:00,
2013-10-07 04:37:00,75.4,75.4,29.97,South,176,7.0,8.0,100,0.00,,---,0.00,VWS V14.01,2013-10-07 08:37:00,
2013-10-07 04:42:00,75.3,75.0,29.97,South,178,4.0,10.0,99,0.00,,---,0.00,VWS V14.01,2013-10-07 08:42:00,
2013-10-07 04:47:00,75.3,75.0,29.97,South,183,5.0,10.0,99,0.00,,---,0.00,VWS V14.01,2013-10-07 08:47:00,
2013-10-07 04:52:00,75.3,75.0,29.97,South,182,3.0,10.0,99,0.00,,---,0.00,VWS V14.01,2013-10-07 08:52:00,
2013-10-07 04:57:00,75.3,75.3,29.97,South,175,8.0,10.0,100,0.00,,---,0.00,VWS V14.01,2013-10-07 08:57:00,
2013-10-07 05:02:00,75.2,75.2,29.97,South,177,6.0,10.0,100,0.00,,---,0.00,VWS V14.01,2013-10-07 09:02:00,
2013-10-07 05:07:00,75.2,75.2,29.97,South,178,4.0,11.0,100,0.00,,---,0.00,VWS V14.01,2013-10-07 09:07:00,
2013-10-07 05:12:00,75.3,75.3,29.97,South,184,6.0,12.0,100,0.00,,---,0.00,VWS V14.01,2013-10-07 09:12:00,
2013-10-07 05:17:00,75.2,74.9,29.97,South,180,4.0,12.0,99,0.00,,---,0.00,VWS V14.01,2013-10-07 09:17:00,
2013-10-07 05:22:00,75.2,74.9,29.97,SSW,195,4.0,12.0,99,0.00,,---,0.00,VWS V14.01,2013-10-07 09:22:00,
2013-10-07 05:27:00,75.2,74.9,29.97,South,175,7.0,12.0,99,0.00,,---,0.00,VWS V14.01,2013-10-07 09:27:00,
2013-10-07 05:32:00,75.2,74.9,29.97,South,170,3.0,5.0,99,0.00,,---,0.00,VWS V14.01,2013-10-07 09:32:00,
2013-10-07 05:37:00,75.2,75.2,29.97,SSE,162,4.0,10.0,100,0.00,,---,0.00,VWS V14.01,2013-10-07 09:37:00,
2013-10-07 05:42:00,75.2,75.2,29.97,SSE,165,5.0,10.0,100,0.00,,---,0.00,VWS V14.01,2013-10-07 09:42:00,
2013-10-07 05:47:00,75.2,75.2,29.97,SSE,165,4.0,10.0,100,0.00,,---,0.00,VWS V14.01,2013-10-07 09:47:00,
2013-10-07 05:52:00,75.2,75.2,29.96,SSE,163,9.0,10.0,100,0.00,,---,0.00,VWS V14.01,2013-10-07 09:52:00,
2013-10-07 05:57:00,75.2,75.2,29.97,SSE,159,11.0,12.0,100,0.00,,---,0.00,VWS V14.01,2013-10-07 09:57:00,
2013-10-07 06:02:00,75.2,75.2,29.96,SSE,155,11.0,11.0,100,0.00,,---,0.00,VWS V14.01,2013-10-07 10:02:00,
2013-10-07 06:07:00,75.2,75.2,29.97,SSE,162,8.0,15.0,100,0.00,,---,0.00,VWS V14.01,2013-10-07 10:07:00,
2013-10-07 06:12:00,75.2,75.2,29.97,SSE,160,8.0,15.0,100,0.00,,---,0.00,VWS V14.01,2013-10-07 10:12:00,
2013-10-07 06:17:00,75.2,75.2,29.97,SSE,158,7.0,15.0,100,0.00,,---,0.00,VWS V14.01,2013-10-07 10:17:00,
2013-10-07 06:22:00,75.2,75.2,29.97,SSE,160,6.0,15.0,100,0.00,,---,0.00,VWS V14.01,2013-10-07 10:22:00,
2013-10-07 06:27:00,75.2,75.2,29.97,SSE,158,10.0,15.0,100,0.00,,---,0.00,VWS V14.01,2013-10-07 10:27:00,
2013-10-07 06:32:00,75.2,75.2,29.97,SSE,163,8.0,14.0,100,0.00,,---,0.00,VWS V14.01,2013-10-07 10:32:00,
2013-10-07 06:37:00,75.2,75.2,29.96,SSE,162,7.0,14.0,100,0.00,,---,0.00,VWS V14.01,2013-10-07 10:37:00,
2013-10-07 06:42:00,75.2,75.2,29.96,SSE,156,9.0,14.0,100,0.00,,---,0.00,VWS V14.01,2013-10-07 10:42:00,
2013-10-07 06:47:00,75.2,75.2,29.96,South,174,5.0,14.0,100,0.00,,---,0.00,VWS V14.01,2013-10-07 10:47:00,
2013-10-07 06:52:00,75.1,75.1,29.96,SSE,161,7.0,14.0,100,0.00,,---,0.00,VWS V14.01,2013-10-07 10:52:00,
2013-10-07 06:57:00,75.1,75.1,29.96,SSE,155,10.0,14.0,100,0.00,,---,0.00,VWS V14.01,2013-10-07 10:57:00,
2013-10-07 07:02:00,75.1,75.1,29.96,SSE,154,8.0,8.0,100,0.00,,---,0.00,VWS V14.01,2013-10-07 11:02:00,
2013-10-07 07:07:00,75.1,75.1,29.96,SSE,164,10.0,12.0,100,0.00,,---,0.00,VWS V14.01,2013-10-07 11:07:00,
2013-10-07 07:12:00,75.1,75.1,29.96,SSE,163,8.0,14.0,100,0.00,,---,0.00,VWS V14.01,2013-10-07 11:12:00,
2013-10-07 07:17:00,75.1,75.1,29.96,SSE,162,9.0,15.0,100,0.00,,---,0.00,VWS V14.01,2013-10-07 11:17:00,
2013-10-07 07:22:00,75.1,75.1,29.96,SSE,162,9.0,16.0,100,0.00,,---,0.00,VWS V14.01,2013-10-07 11:22:00,
2013-10-07 07:27:00,75.2,75.2,29.96,SSE,162,5.0,16.0,100,0.00,,---,0.00,VWS V14.01,2013-10-07 11:27:00,
2013-10-07 07:32:00,75.2,75.2,29.96,SSE,168,7.0,17.0,100,0.00,,---,0.00,VWS V14.01,2013-10-07 11:32:00,
2013-10-07 07:37:00,75.3,75.3,29.96,South,170,5.0,17.0,100,0.00,,---,0.00,VWS V14.01,2013-10-07 11:37:00,
2013-10-07 07:42:00,75.3,75.3,29.96,South,171,7.0,17.0,100,0.00,,---,0.00,VWS V14.01,2013-10-07 11:42:00,
2013-10-07 07:47:00,75.3,75.3,29.96,SSE,163,6.0,17.0,100,0.00,,---,0.00,VWS V14.01,2013-10-07 11:47:00,
2013-10-07 07:52:00,75.4,75.4,29.97,South,183,5.0,17.0,100,0.00,,---,0.00,VWS V14.01,2013-10-07 11:52:00,
2013-10-07 07:57:00,75.4,75.4,29.97,SSE,161,6.0,17.0,100,0.00,,---,0.00,VWS V14.01,2013-10-07 11:57:00,
2013-10-07 08:02:00,75.4,75.4,29.96,SSE,160,5.0,11.0,100,0.00,,---,0.00,VWS V14.01,2013-10-07 12:02:00,
2013-10-07 08:07:00,75.5,75.5,29.97,SSE,155,9.0,11.0,100,0.00,,---,0.00,VWS V14.01,2013-10-07 12:07:00,
2013-10-07 08:12:00,75.5,75.5,29.97,SSE,159,4.0,12.0,100,0.00,,---,0.00,VWS V14.01,2013-10-07 12:12:00,
2013-10-07 08:17:00,75.6,75.6,29.97,South,171,7.0,12.0,100,0.00,,---,0.00,VWS V14.01,2013-10-07 12:17:00,
2013-10-07 08:22:00,75.7,75.7,29.97,SSE,165,7.0,12.0,100,0.00,,---,0.00,VWS V14.01,2013-10-07 12:22:00,
2013-10-07 08:27:00,75.7,75.4,29.97,South,175,5.0,12.0,99,0.00,,---,0.00,VWS V14.01,2013-10-07 12:27:00,
2013-10-07 08:32:00,75.8,75.5,29.97,South,176,6.0,11.0,99,0.00,,---,0.00,VWS V14.01,2013-10-07 12:32:00,
2013-10-07 08:37:00,75.8,75.5,29.97,South,185,5.0,13.0,99,0.00,,---,0.00,VWS V14.01,2013-10-07 12:37:00,
2013-10-07 08:42:00,75.8,75.5,29.98,South,169,9.0,13.0,99,0.00,,---,0.00,VWS V14.01,2013-10-07 12:42:00,
2013-10-07 08:47:00,75.8,75.5,29.98,SSE,168,7.0,13.0,99,0.00,,---,0.00,VWS V14.01,2013-10-07 12:47:00,
2013-10-07 08:52:00,75.8,75.5,29.98,South,173,6.0,13.0,99,0.00,,---,0.00,VWS V14.01,2013-10-07 12:52:00,
2013-10-07 08:57:00,75.8,75.5,29.97,South,178,5.0,13.0,99,0.00,,---,0.00,VWS V14.01,2013-10-07 12:57:00,
2013-10-07 09:02:00,75.9,75.6,29.97,SSE,161,6.0,12.0,99,0.00,,---,0.00,VWS V14.01,2013-10-07 13:02:00,
2013-10-07 09:07:00,76.0,75.7,29.98,SSE,161,8.0,13.0,99,0.00,,---,0.00,VWS V14.01,2013-10-07 13:07:00,
2013-10-07 09:12:00,76.2,75.6,29.97,South,174,5.0,13.0,98,0.00,,---,0.00,VWS V14.01,2013-10-07 13:12:00,
2013-10-07 09:17:00,76.3,75.7,29.98,SSE,156,7.0,14.0,98,0.00,,---,0.00,VWS V14.01,2013-10-07 13:17:00,
2013-10-07 09:22:00,76.4,76.1,29.97,SSE,164,7.0,14.0,99,0.00,,---,0.00,VWS V14.01,2013-10-07 13:22:00,
2013-10-07 09:27:00,76.6,76.3,29.97,SSE,164,6.0,14.0,99,0.00,,---,0.00,VWS V14.01,2013-10-07 13:27:00,
2013-10-07 09:32:00,76.8,76.2,29.97,SSE,149,8.0,13.0,98,0.00,,---,0.00,VWS V14.01,2013-10-07 13:32:00,
2013-10-07 09:37:00,76.9,76.3,29.97,SSE,155,5.0,13.0,98,0.00,,---,0.00,VWS V14.01,2013-10-07 13:37:00,
2013-10-07 09:42:00,77.0,76.4,29.97,SSE,151,9.0,14.0,98,0.00,,---,0.00,VWS V14.01,2013-10-07 13:42:00,
2013-10-07 09:47:00,77.1,76.2,29.97,SSE,155,8.0,14.0,97,0.00,,---,0.00,VWS V14.01,2013-10-07 13:47:00,
2013-10-07 09:52:00,77.2,76.6,29.97,SSE,158,6.0,14.0,98,0.00,,---,0.00,VWS V14.01,2013-10-07 13:52:00,
2013-10-07 09:57:00,77.3,77.0,29.98,SSE,157,6.0,14.0,99,0.00,,---,0.00,VWS V14.01,2013-10-07 13:57:00,
2013-10-07 10:02:00,77.5,77.2,29.98,SSE,155,9.0,13.0,99,0.00,,---,0.00,VWS V14.01,2013-10-07 14:02:00,
2013-10-07 10:07:00,77.8,77.5,29.98,SSE,168,5.0,16.0,99,0.00,,---,0.00,VWS V14.01,2013-10-07 14:07:00,
2013-10-07 10:12:00,77.9,77.3,29.98,SSE,167,8.0,16.0,98,0.00,,---,0.00,VWS V14.01,2013-10-07 14:12:00,
2013-10-07 10:17:00,78.1,77.2,29.98,South,173,8.0,17.0,97,0.00,,---,0.00,VWS V14.01,2013-10-07 14:17:00,
2013-10-07 10:22:00,78.2,77.0,29.98,SSE,167,9.0,17.0,96,0.00,,---,0.00,VWS V14.01,2013-10-07 14:22:00,
2013-10-07 10:27:00,78.3,76.8,29.98,SSE,163,7.0,17.0,95,0.00,,---,0.00,VWS V14.01,2013-10-07 14:27:00,
2013-10-07 10:32:00,78.3,77.1,29.98,South,170,6.0,9.0,96,0.00,,---,0.00,VWS V14.01,2013-10-07 14:32:00,
2013-10-07 10:37:00,78.5,77.3,29.97,SSE,153,11.0,14.0,96,0.00,,---,0.00,VWS V14.01,2013-10-07 14:37:00,
2013-10-07 10:42:00,78.7,77.5,29.97,South,177,6.0,14.0,96,0.00,,---,0.00,VWS V14.01,2013-10-07 14:42:00,
2013-10-07 10:47:00,78.8,77.2,29.97,SSE,160,11.0,14.0,95,0.00,,---,0.00,VWS V14.01,2013-10-07 14:47:00,
2013-10-07 10:52:00,79.0,77.1,29.97,South,169,7.0,15.0,94,0.00,,---,0.00,VWS V14.01,2013-10-07 14:52:00,
2013-10-07 10:57:00,79.2,77.3,29.98,SSE,157,7.0,15.0,94,0.00,,---,0.00,VWS V14.01,2013-10-07 14:57:00,
2013-10-07 11:02:00,79.2,77.0,29.98,SSE,157,9.0,15.0,93,0.00,,---,0.00,VWS V14.01,2013-10-07 15:02:00,
2013-10-07 11:07:00,79.1,76.6,29.98,SSE,157,8.0,19.0,92,0.00,,---,0.00,VWS V14.01,2013-10-07 15:07:00,
2013-10-07 11:12:00,79.1,76.2,29.98,SSE,148,11.0,19.0,91,0.00,,---,0.00,VWS V14.01,2013-10-07 15:12:00,
2013-10-07 11:17:00,79.1,76.2,29.97,SSE,162,9.0,19.0,91,0.00,,---,0.00,VWS V14.01,2013-10-07 15:17:00,
2013-10-07 11:22:00,79.2,76.3,29.96,South,174,7.0,19.0,91,0.00,,---,0.00,VWS V14.01,2013-10-07 15:22:00,
2013-10-07 11:27:00,79.2,76.0,29.97,SSE,168,6.0,19.0,90,0.00,,---,0.00,VWS V14.01,2013-10-07 15:27:00,
2013-10-07 11:32:00,79.3,76.1,29.97,South,175,7.0,10.0,90,0.00,,---,0.00,VWS V14.01,2013-10-07 15:32:00,
2013-10-07 11:37:00,79.2,76.0,29.97,SSE,162,11.0,14.0,90,0.00,,---,0.00,VWS V14.01,2013-10-07 15:37:00,
2013-10-07 11:42:00,79.2,76.0,29.96,SSE,168,8.0,16.0,90,0.00,,---,0.00,VWS V14.01,2013-10-07 15:42:00,
2013-10-07 11:47:00,79.4,76.6,29.97,SSE,164,9.0,17.0,91,0.00,,---,0.00,VWS V14.01,2013-10-07 15:47:00,
2013-10-07 11:52:00,79.5,76.7,29.97,South,186,5.0,17.0,91,0.00,,---,0.00,VWS V14.01,2013-10-07 15:52:00,
2013-10-07 11:57:00,79.5,76.3,29.96,SSE,162,10.0,17.0,90,0.00,,---,0.00,VWS V14.01,2013-10-07 15:57:00,
2013-10-07 12:02:00,79.5,76.3,29.97,SSE,160,7.0,11.0,90,0.00,,---,0.00,VWS V14.01,2013-10-07 16:02:00,
2013-10-07 12:07:00,79.6,76.4,29.96,South,179,9.0,12.0,90,0.00,,---,0.00,VWS V14.01,2013-10-07 16:07:00,
2013-10-07 12:12:00,79.7,76.2,29.96,South,176,7.0,14.0,89,0.00,,---,0.00,VWS V14.01,2013-10-07 16:12:00,
2013-10-07 12:17:00,79.8,75.9,29.96,South,184,8.0,14.0,88,0.00,,---,0.00,VWS V14.01,2013-10-07 16:17:00,
2013-10-07 12:22:00,79.8,75.9,29.96,South,174,7.0,14.0,88,0.00,,---,0.00,VWS V14.01,2013-10-07 16:22:00,
2013-10-07 12:27:00,79.9,76.0,29.95,South,173,6.0,14.0,88,0.00,,---,0.00,VWS V14.01,2013-10-07 16:27:00,
2013-10-07 12:32:00,79.9,75.7,29.95,South,175,7.0,10.0,87,0.00,,---,0.00,VWS V14.01,2013-10-07 16:32:00,
2013-10-07 12:37:00,79.9,75.7,29.95,South,172,10.0,14.0,87,0.00,,---,0.00,VWS V14.01,2013-10-07 16:37:00,
2013-10-07 12:42:00,79.9,76.0,29.95,South,179,8.0,14.0,88,0.00,,---,0.00,VWS V14.01,2013-10-07 16:42:00,
2013-10-07 12:47:00,80.0,76.1,29.94,South,186,6.0,14.0,88,0.00,,---,0.00,VWS V14.01,2013-10-07 16:47:00,
2013-10-07 12:52:00,80.2,76.0,29.94,South,181,11.0,14.0,87,0.00,,---,0.00,VWS V14.01,2013-10-07 16:52:00,
2013-10-07 12:57:00,80.3,76.1,29.94,South,173,8.0,14.0,87,0.00,,---,0.00,VWS V14.01,2013-10-07 16:57:00,
2013-10-07 13:02:00,80.3,76.1,29.94,SSW,192,6.0,8.0,87,0.00,,---,0.00,VWS V14.01,2013-10-07 17:02:00,
2013-10-07 13:07:00,80.5,76.3,29.94,SSW,192,7.0,12.0,87,0.00,,---,0.00,VWS V14.01,2013-10-07 17:07:00,
2013-10-07 13:12:00,80.6,76.4,29.94,South,183,7.0,12.0,87,0.00,,---,0.00,VWS V14.01,2013-10-07 17:12:00,
2013-10-07 13:17:00,80.8,76.6,29.94,SSW,196,10.0,14.0,87,0.00,,---,0.00,VWS V14.01,2013-10-07 17:17:00,
2013-10-07 13:22:00,81.1,76.2,29.94,SSW,195,8.0,14.0,85,0.00,,---,0.00,VWS V14.01,2013-10-07 17:22:00,
2013-10-07 13:27:00,81.2,76.3,29.94,South,188,6.0,14.0,85,0.00,,---,0.00,VWS V14.01,2013-10-07 17:27:00,
2013-10-07 13:32:00,81.4,76.5,29.94,SSW,196,6.0,10.0,85,0.00,,---,0.00,VWS V14.01,2013-10-07 17:32:00,
2013-10-07 13:37:00,81.6,76.3,29.94,SSW,204,9.0,13.0,84,0.00,,---,0.00,VWS V14.01,2013-10-07 17:37:00,
2013-10-07 13:42:00,81.7,76.4,29.93,SSW,195,5.0,16.0,84,0.00,,---,0.00,VWS V14.01,2013-10-07 17:42:00,
2013-10-07 13:47:00,81.7,76.4,29.93,SSW,192,7.0,16.0,84,0.00,,---,0.00,VWS V14.01,2013-10-07 17:47:00,
2013-10-07 13:52:00,81.8,76.8,29.93,South,189,5.0,16.0,85,0.00,,---,0.00,VWS V14.01,2013-10-07 17:52:00,
2013-10-07 13:57:00,81.9,76.9,29.92,SSW,205,10.0,16.0,85,0.00,,---,0.00,VWS V14.01,2013-10-07 17:57:00,
2013-10-07 14:02:00,82.0,77.1,29.92,South,191,4.0,10.0,85,0.00,,---,0.00,VWS V14.01,2013-10-07 18:02:00,
2013-10-07 14:07:00,82.1,76.8,29.93,SSW,196,5.0,13.0,84,0.00,,---,0.00,VWS V14.01,2013-10-07 18:07:00,
2013-10-07 14:12:00,82.1,76.8,29.92,South,189,5.0,13.0,84,0.00,,---,0.00,VWS V14.01,2013-10-07 18:12:00,
2013-10-07 14:17:00,82.0,76.7,29.92,SSW,204,10.0,13.0,84,0.00,,---,0.00,VWS V14.01,2013-10-07 18:17:00,
2013-10-07 14:22:00,82.0,76.7,29.92,South,189,4.0,13.0,84,0.00,,---,0.00,VWS V14.01,2013-10-07 18:22:00,
2013-10-07 14:27:00,81.9,76.6,29.92,South,176,8.0,13.0,84,0.00,,---,0.00,VWS V14.01,2013-10-07 18:27:00,
2013-10-07 14:32:00,81.8,76.5,29.92,South,179,4.0,12.0,84,0.00,,---,0.00,VWS V14.01,2013-10-07 18:32:00,
2013-10-07 14:37:00,81.8,76.5,29.92,SSW,192,4.0,12.0,84,0.00,,---,0.00,VWS V14.01,2013-10-07 18:37:00,
2013-10-07 14:42:00,81.7,76.0,29.92,South,178,4.0,12.0,83,0.00,,---,0.00,VWS V14.01,2013-10-07 18:42:00,
2013-10-07 14:47:00,81.6,75.9,29.92,South,190,6.0,12.0,83,0.00,,---,0.00,VWS V14.01,2013-10-07 18:47:00,
2013-10-07 14:52:00,81.4,75.7,29.91,South,179,6.0,13.0,83,0.00,,---,0.00,VWS V14.01,2013-10-07 18:52:00,
2013-10-07 14:57:00,81.4,76.5,29.92,South,178,7.0,13.0,85,0.00,,---,0.00,VWS V14.01,2013-10-07 18:57:00,
2013-10-07 15:02:00,81.4,76.5,29.91,South,172,5.0,7.0,85,0.00,,---,0.00,VWS V14.01,2013-10-07 19:02:00,
2013-10-07 15:07:00,81.4,76.1,29.91,South,169,4.0,12.0,84,0.00,,---,0.00,VWS V14.01,2013-10-07 19:07:00,
2013-10-07 15:12:00,81.4,76.1,29.91,South,191,6.0,12.0,84,0.00,,---,0.00,VWS V14.01,2013-10-07 19:12:00,
2013-10-07 15:17:00,81.3,76.4,29.91,South,191,6.0,12.0,85,0.00,,---,0.00,VWS V14.01,2013-10-07 19:17:00,
2013-10-07 15:22:00,81.3,76.4,29.91,SSW,198,7.0,12.0,85,0.00,,---,0.00,VWS V14.01,2013-10-07 19:22:00,
2013-10-07 15:27:00,81.2,76.3,29.91,South,186,4.0,12.0,85,0.00,,---,0.00,VWS V14.01,2013-10-07 19:27:00,
2013-10-07 15:32:00,81.1,76.2,29.92,South,179,5.0,11.0,85,0.00,,---,0.00,VWS V14.01,2013-10-07 19:32:00,
2013-10-07 15:37:00,81.1,76.2,29.91,South,182,4.0,11.0,85,0.00,,---,0.00,VWS V14.01,2013-10-07 19:37:00,
2013-10-07 15:42:00,81.1,76.2,29.92,South,182,7.0,12.0,85,0.00,,---,0.00,VWS V14.01,2013-10-07 19:42:00,
2013-10-07 15:47:00,81.1,76.2,29.92,South,178,8.0,12.0,85,0.00,,---,0.00,VWS V14.01,2013-10-07 19:47:00,
2013-10-07 15:52:00,80.9,76.0,29.92,SSW,202,7.0,12.0,85,0.00,,---,0.00,VWS V14.01,2013-10-07 19:52:00,
2013-10-07 15:57:00,80.8,76.2,29.92,SSW,196,5.0,12.0,86,0.00,,---,0.00,VWS V14.01,2013-10-07 19:57:00,
2013-10-07 16:02:00,80.7,76.5,29.92,South,176,4.0,8.0,87,0.00,,---,0.00,VWS V14.01,2013-10-07 20:02:00,
2013-10-07 16:07:00,80.6,76.4,29.92,South,178,8.0,10.0,87,0.00,,---,0.00,VWS V14.01,2013-10-07 20:07:00,
2013-10-07 16:12:00,80.5,76.3,29.92,South,180,5.0,10.0,87,0.00,,---,0.00,VWS V14.01,2013-10-07 20:12:00,
2013-10-07 16:17:00,80.4,76.2,29.92,SSW,198,4.0,11.0,87,0.00,,---,0.00,VWS V14.01,2013-10-07 20:17:00,
2013-10-07 16:22:00,80.3,76.4,29.92,South,184,4.0,11.0,88,0.00,,---,0.00,VWS V14.01,2013-10-07 20:22:00,
2013-10-07 16:27:00,80.2,76.3,29.92,South,189,3.0,11.0,88,0.00,,---,0.00,VWS V14.01,2013-10-07 20:27:00,
2013-10-07 16:32:00,80.1,76.2,29.92,SSW,194,4.0,4.0,88,0.00,,---,0.00,VWS V14.01,2013-10-07 20:32:00,
2013-10-07 16:37:00,79.9,76.0,29.92,SSW,195,3.0,7.0,88,0.00,,---,0.00,VWS V14.01,2013-10-07 20:37:00,
2013-10-07 16:42:00,79.9,76.0,29.92,SSW,202,5.0,7.0,88,0.00,,---,0.00,VWS V14.01,2013-10-07 20:42:00,
2013-10-07 16:47:00,79.8,76.3,29.92,SSW,199,6.0,9.0,89,0.00,,---,0.00,VWS V14.01,2013-10-07 20:47:00,
2013-10-07 16:52:00,79.7,76.2,29.92,SSW,195,2.0,9.0,89,0.00,,---,0.00,VWS V14.01,2013-10-07 20:52:00,
2013-10-07 16:57:00,79.6,76.1,29.92,South,189,2.0,9.0,89,0.00,,---,0.00,VWS V14.01,2013-10-07 20:57:00,
2013-10-07 17:02:00,79.5,76.0,29.92,South,182,3.0,7.0,89,0.00,,---,0.00,VWS V14.01,2013-10-07 21:02:00,
2013-10-07 17:07:00,79.5,76.3,29.91,SSW,201,3.0,9.0,90,0.00,,---,0.00,VWS V14.01,2013-10-07 21:07:00,
2013-10-07 17:12:00,79.4,76.2,29.92,SSW,194,3.0,9.0,90,0.00,,---,0.00,VWS V14.01,2013-10-07 21:12:00,
2013-10-07 17:17:00,79.4,76.2,29.92,South,183,4.0,9.0,90,0.00,,---,0.00,VWS V14.01,2013-10-07 21:17:00,
2013-10-07 17:22:00,79.4,76.6,29.92,SSW,196,2.0,9.0,91,0.00,,---,0.00,VWS V14.01,2013-10-07 21:22:00,
2013-10-07 17:27:00,79.3,76.4,29.91,South,188,2.0,9.0,91,0.00,,---,0.00,VWS V14.01,2013-10-07 21:27:00,
2013-10-07 17:32:00,79.2,76.3,29.92,South,177,7.0,7.0,91,0.00,,---,0.00,VWS V14.01,2013-10-07 21:32:00,
2013-10-07 17:37:00,79.1,76.2,29.92,South,186,3.0,7.0,91,0.00,,---,0.00,VWS V14.01,2013-10-07 21:37:00,
2013-10-07 17:42:00,79.0,76.2,29.92,South,175,4.0,7.0,91,0.00,,---,0.00,VWS V14.01,2013-10-07 21:42:00,
2013-10-07 17:47:00,79.0,76.2,29.92,South,179,1.0,7.0,91,0.00,,---,0.00,VWS V14.01,2013-10-07 21:47:00,
2013-10-07 17:52:00,78.9,76.1,29.92,South,172,3.0,7.0,91,0.00,,---,0.00,VWS V14.01,2013-10-07 21:52:00,
2013-10-07 17:57:00,78.9,76.1,29.91,SSW,192,3.0,7.0,91,0.00,,---,0.00,VWS V14.01,2013-10-07 21:57:00,
2013-10-07 18:02:00,78.7,75.9,29.91,South,190,2.0,3.0,91,0.00,,---,0.00,VWS V14.01,2013-10-07 22:02:00,
2013-10-07 18:07:00,78.7,76.2,29.92,South,190,1.0,5.0,92,0.00,,---,0.00,VWS V14.01,2013-10-07 22:07:00,
2013-10-07 18:12:00,78.6,76.1,29.92,South,190,3.0,6.0,92,0.00,,---,0.00,VWS V14.01,2013-10-07 22:12:00,
2013-10-07 18:17:00,78.5,76.0,29.91,South,177,3.0,6.0,92,0.00,,---,0.00,VWS V14.01,2013-10-07 22:17:00,
2013-10-07 18:22:00,78.5,76.0,29.91,South,177,3.0,6.0,92,0.00,,---,0.00,VWS V14.01,2013-10-07 22:22:00,
2013-10-07 18:27:00,78.4,75.9,29.91,South,188,2.0,6.0,92,0.00,,---,0.00,VWS V14.01,2013-10-07 22:27:00,
2013-10-07 18:32:00,78.3,76.1,29.91,South,172,2.0,5.0,93,0.00,,---,0.00,VWS V14.01,2013-10-07 22:32:00,
2013-10-07 18:37:00,78.3,76.1,29.91,South,173,2.0,5.0,93,0.00,,---,0.00,VWS V14.01,2013-10-07 22:37:00,
2013-10-07 18:42:00,78.2,76.0,29.91,SSE,159,5.0,6.0,93,0.00,,---,0.00,VWS V14.01,2013-10-07 22:42:00,
2013-10-07 18:47:00,78.2,76.0,29.91,SSE,165,2.0,6.0,93,0.00,,---,0.00,VWS V14.01,2013-10-07 22:47:00,
2013-10-07 18:52:00,78.1,75.9,29.91,South,170,1.0,6.0,93,0.00,,---,0.00,VWS V14.01,2013-10-07 22:52:00,
2013-10-07 18:57:00,78.0,76.1,29.91,SSE,163,2.0,6.0,94,0.00,,---,0.00,VWS V14.01,2013-10-07 22:57:00,
2013-10-07 19:02:00,78.0,76.1,29.91,SSE,157,2.0,6.0,94,0.00,,---,0.00,VWS V14.01,2013-10-07 23:02:00,
2013-10-07 19:07:00,77.9,76.0,29.91,SSE,157,1.0,6.0,94,0.00,,---,0.00,VWS V14.01,2013-10-07 23:07:00,
2013-10-07 19:12:00,77.9,76.0,29.90,SSE,147,1.0,6.0,94,0.00,,---,0.00,VWS V14.01,2013-10-07 23:12:00,
2013-10-07 19:17:00,77.8,75.9,29.91,SSE,148,2.0,6.0,94,0.00,,---,0.00,VWS V14.01,2013-10-07 23:17:00,
2013-10-07 19:22:00,77.8,75.9,29.91,SSE,159,2.0,6.0,94,0.00,,---,0.00,VWS V14.01,2013-10-07 23:22:00,
2013-10-07 19:27:00,77.8,75.9,29.91,SSE,158,5.0,6.0,94,0.00,,---,0.00,VWS V14.01,2013-10-07 23:27:00,
2013-10-07 19:32:00,77.7,75.8,29.91,SSE,164,0.0,5.0,94,0.00,,---,0.00,VWS V14.01,2013-10-07 23:32:00,
2013-10-07 19:37:00,77.7,75.8,29.91,South,178,2.0,6.0,94,0.00,,---,0.00,VWS V14.01,2013-10-07 23:37:00,
2013-10-07 19:42:00,77.6,76.1,29.92,South,189,2.0,6.0,95,0.00,,---,0.00,VWS V14.01,2013-10-07 23:42:00,
2013-10-07 19:47:00,77.6,75.7,29.92,South,180,5.0,7.0,94,0.00,,---,0.00,VWS V14.01,2013-10-07 23:47:00,
2013-10-07 19:52:00,77.5,76.0,29.92,South,178,6.0,7.0,95,0.00,,---,0.00,VWS V14.01,2013-10-07 23:52:00,
2013-10-07 19:57:00,77.5,76.0,29.92,South,179,3.0,7.0,95,0.00,,---,0.00,VWS V14.01,2013-10-07 23:57:00,
2013-10-07 20:02:00,77.4,76.2,29.93,South,171,2.0,6.0,96,0.00,,---,0.00,VWS V14.01,2013-10-08 00:02:00,
2013-10-07 20:07:00,77.4,76.2,29.93,SSE,160,4.0,8.0,96,0.00,,---,0.00,VWS V14.01,2013-10-08 00:07:00,
2013-10-07 20:12:00,77.4,76.5,29.92,SSE,157,5.0,8.0,97,0.00,,---,0.00,VWS V14.01,2013-10-08 00:12:00,
2013-10-07 20:17:00,77.4,76.5,29.92,SSE,161,2.0,8.0,97,0.00,,---,0.00,VWS V14.01,2013-10-08 00:17:00,
2013-10-07 20:22:00,77.4,76.5,29.92,South,171,3.0,8.0,97,0.00,,---,0.00,VWS V14.01,2013-10-08 00:22:00,
2013-10-07 20:27:00,77.4,76.8,29.92,SSE,155,3.0,8.0,98,0.00,,---,0.00,VWS V14.01,2013-10-08 00:27:00,
2013-10-07 20:32:00,77.3,76.7,29.92,SSE,160,7.0,8.0,98,0.00,,---,0.00,VWS V14.01,2013-10-08 00:32:00,
2013-10-07 20:37:00,77.3,76.7,29.92,South,169,4.0,10.0,98,0.00,,---,0.00,VWS V14.01,2013-10-08 00:37:00,
2013-10-07 20:42:00,77.2,76.9,29.92,SSE,150,4.0,11.0,99,0.01,,---,0.01,VWS V14.01,2013-10-08 00:42:00,
2013-10-07 20:47:00,77.2,76.9,29.92,South,173,2.0,11.0,99,0.01,,---,0.01,VWS V14.01,2013-10-08 00:47:00,
2013-10-07 20:52:00,77.1,76.8,29.92,SSE,166,4.0,11.0,99,0.01,,---,0.01,VWS V14.01,2013-10-08 00:52:00,
2013-10-07 20:57:00,77.0,76.7,29.92,South,178,5.0,11.0,99,0.01,,---,0.01,VWS V14.01,2013-10-08 00:57:00,
2013-10-07 21:02:00,77.0,76.7,29.92,South,172,6.0,7.0,99,0.01,,---,0.01,VWS V14.01,2013-10-08 01:02:00,
2013-10-07 21:07:00,76.9,76.6,29.92,SSE,164,5.0,12.0,99,0.01,,---,0.01,VWS V14.01,2013-10-08 01:07:00,
2013-10-07 21:12:00,76.8,76.5,29.92,SSE,158,6.0,12.0,99,0.01,,---,0.01,VWS V14.01,2013-10-08 01:12:00,
2013-10-07 21:17:00,76.8,76.5,29.92,SSE,162,8.0,12.0,99,0.01,,---,0.01,VWS V14.01,2013-10-08 01:17:00,
2013-10-07 21:22:00,76.6,76.3,29.92,SSE,161,7.0,15.0,99,0.01,,---,0.01,VWS V14.01,2013-10-08 01:22:00,
2013-10-07 21:27:00,76.5,76.2,29.92,SSE,164,8.0,15.0,99,0.01,,---,0.01,VWS V14.01,2013-10-08 01:27:00,
2013-10-07 21:32:00,76.5,76.2,29.92,SSE,164,9.0,11.0,99,0.01,,---,0.01,VWS V14.01,2013-10-08 01:32:00,
2013-10-07 21:37:00,76.5,76.2,29.93,SSE,161,7.0,16.0,99,0.01,,---,0.01,VWS V14.01,2013-10-08 01:37:00,
2013-10-07 21:42:00,76.4,76.4,29.93,SSE,159,8.0,16.0,100,0.01,,---,0.01,VWS V14.01,2013-10-08 01:42:00,
2013-10-07 21:47:00,76.4,76.4,29.93,SSE,163,8.0,16.0,100,0.01,,---,0.01,VWS V14.01,2013-10-08 01:47:00,
2013-10-07 21:52:00,76.4,76.4,29.93,SSE,159,8.0,16.0,100,0.01,,---,0.01,VWS V14.01,2013-10-08 01:52:00,
2013-10-07 21:57:00,76.4,76.4,29.93,SSE,158,7.0,16.0,100,0.01,,---,0.01,VWS V14.01,2013-10-08 01:57:00,
2013-10-07 22:02:00,76.4,76.4,29.93,SSE,165,8.0,11.0,100,0.00,,---,0.01,VWS V14.01,2013-10-08 02:02:00,
2013-10-07 22:07:00,76.3,76.3,29.93,SSE,154,16.0,18.0,100,0.00,,---,0.01,VWS V14.01,2013-10-08 02:07:00,
2013-10-07 22:12:00,76.2,75.3,29.94,SSE,154,13.0,18.0,97,0.00,,---,0.01,VWS V14.01,2013-10-08 02:12:00,
2013-10-07 22:17:00,76.1,75.2,29.94,SSE,163,5.0,18.0,97,0.00,,---,0.01,VWS V14.01,2013-10-08 02:17:00,
2013-10-07 22:22:00,76.0,75.4,29.94,SSE,165,6.0,18.0,98,0.00,,---,0.01,VWS V14.01,2013-10-08 02:22:00,
2013-10-07 22:27:00,76.0,75.7,29.94,SSE,162,5.0,18.0,99,0.00,,---,0.01,VWS V14.01,2013-10-08 02:27:00,
2013-10-07 22:32:00,76.0,75.7,29.94,SSE,163,7.0,8.0,99,0.00,,---,0.01,VWS V14.01,2013-10-08 02:32:00,
2013-10-07 22:37:00,76.0,76.0,29.94,SSE,166,3.0,10.0,100,0.00,,---,0.01,VWS V14.01,2013-10-08 02:37:00,
2013-10-07 22:42:00,76.1,76.1,29.94,SSE,160,0.0,10.0,100,0.00,,---,0.01,VWS V14.01,2013-10-08 02:42:00,
2013-10-07 22:47:00,76.1,76.1,29.95,ESE,111,1.0,10.0,100,0.00,,---,0.01,VWS V14.01,2013-10-08 02:47:00,
2013-10-07 22:52:00,76.1,76.1,29.95,ESE,114,0.0,10.0,100,0.00,,---,0.01,VWS V14.01,2013-10-08 02:52:00,
2013-10-07 22:57:00,76.2,76.2,29.95,North,0,2.0,10.0,100,0.00,,---,0.01,VWS V14.01,2013-10-08 02:57:00,
2013-10-07 23:02:00,76.2,76.2,29.95,North,1,3.0,3.0,100,0.00,,---,0.01,VWS V14.01,2013-10-08 03:02:00,
2013-10-07 23:07:00,76.3,76.3,29.95,North,0,3.0,4.0,100,0.00,,---,0.01,VWS V14.01,2013-10-08 03:07:00,
2013-10-07 23:12:00,76.3,76.3,29.95,NE,47,6.0,6.0,100,0.00,,---,0.01,VWS V14.01,2013-10-08 03:12:00,
2013-10-07 23:17:00,76.3,76.3,29.94,NE,53,3.0,7.0,100,0.00,,---,0.01,VWS V14.01,2013-10-08 03:17:00,
2013-10-07 23:22:00,76.3,76.0,29.94,NNE,20,6.0,10.0,99,0.00,,---,0.01,VWS V14.01,2013-10-08 03:22:00,
2013-10-07 23:27:00,76.5,76.2,29.94,NNE,31,8.0,12.0,99,0.00,,---,0.01,VWS V14.01,2013-10-08 03:27:00,
2013-10-07 23:32:00,76.7,76.1,29.94,East,87,7.0,11.0,98,0.00,,---,0.01,VWS V14.01,2013-10-08 03:32:00,
2013-10-07 23:37:00,76.7,76.1,29.94,ESE,114,5.0,14.0,98,0.00,,---,0.01,VWS V14.01,2013-10-08 03:37:00,
2013-10-07 23:42:00,76.6,76.0,29.93,SE,139,4.0,14.0,98,0.00,,---,0.01,VWS V14.01,2013-10-08 03:42:00,
2013-10-07 23:47:00,76.6,76.3,29.93,ESE,118,1.0,14.0,99,0.00,,---,0.01,VWS V14.01,2013-10-08 03:47:00,
2013-10-07 23:52:00,76.5,76.2,29.92,East,96,4.0,14.0,99,0.00,,---,0.01,VWS V14.01,2013-10-08 03:52:00,
2013-10-07 23:57:00,76.5,76.5,29.93,East,80,2.0,14.0,100,0.00,,---,0.01,VWS V14.01,2013-10-08 03:57:00,